Central Valley One Loft Race - toss 23

Station: Hammentt Rd - T Race

Distance: 28 Miles

Release: 16-Sep-2020 08:35

Weather Release:    Arrival:

Wind at Release:     Wind at Arrival:

Temp at Release: °    Temp at Arrival: °

Lofts: 94

Birds: 330

Clocked: 331

Good Luck to Everyone!
Drops Pos Breeder Pigeon Name Color Sex Ent Arrival Speed To Win Elg PdAOC
1 Paredes Loft - CA 16167-AU20-JEDD BB H 1 09:12:59.50 1297.127 00:00:00 Yes
2 Palomar Goyo Y Nin - CO 0045-AU20-NIN BB H 1 09:13:03.10 1295.081 00:00:04 Yes
3 Padis Tanus Loft - CA 29854-AU20-JEDD BB C 1 09:13:10.60 1290.841 00:00:11 Yes
4 Ganzo Loft - CA 16200-AU20-JEDD BBSP H 1 09:13:18.20 1286.572 00:00:19 Yes
5 Ganzo Loft - CA 16104-AU20-JEDD RCSP H 2 09:13:20.60 1285.230 00:00:21 Yes
6 Texas Holiday Derby - TX 0730-AU20-NSL 507-681 x 4324 BBSP C 1 09:13:21.60 1284.672 00:00:22 Yes
7 Holts Loft - NC 11678-AU20-AA BBWF H 1 09:13:25.80 1282.332 00:00:26 Yes
8 Liang Loft - CA 0709-AU20-ARPU BC C 1 09:13:27.20 1281.553 00:00:28 Yes
8 Gerry Martin Loft - CA 3225-AU20-CHP Silver Lady RB H 1 09:13:27.20 1281.553 00:00:28 Yes
10 Balderas Lof - CA 3601-AU20-CHP GRIZ H 1 09:13:28.10 1281.054 00:00:29 Yes
11 House Of Paine - CA 0235-AU20-HOUS 218x179 BB H 1 09:13:28.60 1280.776 00:00:29 Yes
12 Jesus Torres - CA 1401-AU20-WSJ BB C 1 09:13:28.70 1280.721 00:00:29 Yes
13 Bako Boy's - CA 0218-AU20-BAK RB C 1 09:13:29.10 1280.499 00:00:30 Yes
14 Nevarez Loft - CA 0217-AU20-NEVA BBWF H 1 09:13:29.40 1280.333 00:00:30 Yes
15 Liang Loft - CA 0701-AU20-ARPU BB C 2 09:13:29.50 1280.277 00:00:30 Yes
16 Blue Sky Loft 2 - CA 0082-AU20-BLUE BB C 1 09:13:29.90 1280.055 00:00:30 Yes
17 Balderas Lof - CA 3602-AU20-CHP BB C 2 09:13:30.30 1279.834 00:00:31 Yes
18 Contender Loft - FL 22382-AU20-JEDD BB H 1 09:13:30.70 1279.612 00:00:31 Yes
18 Sparks Trio Syn 2 - NV 0100-AU20-RENO BB C 1 09:13:30.70 1279.612 00:00:31 Yes
20 Chop Loft - CA 16101-AU20-JEDD GRIZ C 1 09:13:31.50 1279.169 00:00:32 Yes
21 Loft Ramx4 - CA 17103-AU20-AA April BCSP H 1 09:13:32.50 1278.616 00:00:33 Yes
22 Texas Holiday Derby - TX 0743-AU20-NSL 62165 x 943 DC H 2 09:13:32.80 1278.450 00:00:33 Yes
23 Frank Race - CA 0776-AU20-SEL BB C 1 09:13:34.20 1277.677 00:00:35 Yes
24 Luiz Flores Family Loft - NV 0025-AU20-MUER BB H 1 09:13:35.00 1277.235 00:00:36 Yes
24 Capistrano Loft - FL 13403-AU20-ARPU Mukuro BB C 1 09:13:35.00 1277.235 00:00:36 Yes
26 Bob Niemeyer - CA 1006-AU20-AUB BC C 1 09:13:36.30 1276.519 00:00:37 Yes
27 Ismael Franco - CA 1107-AU20-SFR BC H 1 09:13:37.00 1276.133 00:00:38 Yes
28 Valdez & Rodriguez - CA 0266-AU20-CCU BC H 1 09:13:37.70 1275.748 00:00:38 Yes
29 Iron 377 - CA 0604-AU20-WSJ BB H 1 09:13:38.00 1275.582 00:00:39 Yes
30 Sparks Trio Syn 2 - NV 0324-AU20-RENO BB H 2 09:13:38.10 1275.527 00:00:39 Yes
30 Kereru Whare - CA 1202-AU20-FORT RB C 1 09:13:38.10 1275.527 00:00:39 Yes
32 Iron 377 - CA 0610-AU20-WSJ BB H 2 09:13:40.80 1274.043 00:00:41 Yes
33 Bako Boy's - CA 0328-AU20-BAK BC H 2 09:13:41.50 1273.659 00:00:42 Yes
34 Tavy Loft - CA 16131-AU20-JEDD BBWF H 1 09:13:41.90 1273.440 00:00:42 Yes
35 Garlic City - CA 2490-AU20-WSJ BB C 1 09:13:43.10 1272.782 00:00:44 Yes
36 Capistrano Loft - FL 13408-AU20-ARPU KOBE BB H 2 09:13:43.60 1272.508 00:00:44 Yes
37 Jesus Torres - CA 1432-AU20-WSJ BB C 2 09:13:44.10 1272.234 00:00:45 Yes
38 Gomez & Martin Loft - CA 3020-AU20-FORT BB C 1 09:13:47.50 1270.376 00:00:48 Yes
39 Capistrano Loft - FL 13410-AU20-ARPU Aira Gee BB H 3 09:13:47.80 1270.212 00:00:48 Yes
40 Alvigar Loft - CA 17832-AU20-JEDD POTE BB C 1 09:13:48.30 1269.939 00:00:49 Yes
41 Iron 377 - CA 0860-AU20-WSJ BLK H 3 09:13:48.60 1269.776 00:00:49 Yes
42 Oddballs - CA 2225-AU20-FVC BCSP C 1 09:13:49.00 1269.558 00:00:50 Yes
43 Jb Loft - CA 2037-AU20-JBL BC C 1 09:13:49.40 1269.340 00:00:50 Yes
44 Jb Loft - CA 2041-AU20-JBL BC C 2 09:13:49.80 1269.122 00:00:50 Yes
45 H Padilla & Beto Martin Loft - CA 0716-AU20-MTZ BC C 1 09:13:50.20 1268.904 00:00:51 Yes
46 Texas Holiday Derby - TX 0702-AU20-NSL 928 x 626 BB H 3 09:13:50.70 1268.632 00:00:51 Yes
47 Paredes Loft - CA 16164-AU20-JEDD GRIZ C 2 09:13:51.60 1268.142 00:00:52 Yes
47 Gerry Martin Loft - CA 3262-AU20-CHP Vandenbird BC C 2 09:13:51.60 1268.142 00:00:52 Yes
49 Garlic City - CA 2493-AU20-WSJ BB H 2 09:13:52.30 1267.761 00:00:53 Yes
50 Balderas Lof - CA 3605-AU20-CHP BC C 3 09:13:52.70 1267.544 00:00:53 Yes
51 Padis Tanus Loft - CA 29855-AU20-JEDD BC H 2 09:13:53.10 1267.327 00:00:54 Yes
52 Palomar Aguilar - CA 0703-AU20-HAN BC C 1 09:13:53.20 1267.272 00:00:54 Yes
53 Mexicubas Loft - CO 20299-AU20-FH BC C 1 09:13:53.60 1267.055 00:00:54 Yes
53 D B Loft - CA 4950-AU20-JEDD NEVER LOOK BACK BC H 1 09:13:53.60 1267.055 00:00:54 Yes
55 Juan Rivas Loft - CA 3081-AU20-CHP BB H 1 09:13:54.20 1266.730 00:00:55 Yes
56 Osty Loft - CA 5592-AU20-FOYS BC C 1 09:13:54.70 1266.458 00:00:55 Yes
57 Leovis Loft - CA 103857-MX20-FMC BC H 1 09:13:55.00 1266.296 00:00:55 Yes
58 Joe Jauhal - CA 0111-AU20-JEDD BC H 1 09:13:55.80 1265.862 00:00:56 Yes
59 Vaz Loft - CA 0387-AU20-SEL GRSP H 1 09:13:58.50 1264.400 00:00:59 Yes
60 Gomez & Martin Loft - CA 3021-AU20-FORT BC H 2 09:13:59.30 1263.968 00:01:00 Yes
61 Mexicubas Loft - CO 0018-AU20-CHEC BC H 2 09:13:59.70 1263.752 00:01:00 Yes
62 Iron 377 - CA 0603-AU20-WSJ BB H 4 09:14:00.10 1263.536 00:01:01 Yes
63 Josjim Loft - CA 20025-AU20-LAKE BB H 1 09:14:00.80 1263.158 00:01:01 Yes
64 Iron 377 - CA 0853-AU20-WSJ DC H 5 09:14:02.00 1262.511 00:01:03 Yes
65 Jose Reyes Loft - CA 16165-AU20-JEDD RB C 1 09:14:02.90 1262.026 00:01:03 Yes
66 3 Stars & A Sun - TX 0412-AU20-STAR BBSP H 1 09:14:03.40 1261.756 00:01:04 Yes
67 Bob Bostwick - CA 0018-AU20-COCO BB C 1 09:14:03.80 1261.541 00:01:04 Yes
68 Nevarez Loft - CA 0215-AU20-NEVA BC C 2 09:14:04.20 1261.326 00:01:05 Yes
69 John Karnofel - CA 0211-AU20-KFL Salinas Sweetheart BBWF H 1 09:14:04.80 1261.003 00:01:05 Yes
70 Michael Kelly - CA 4107-AU20-ARC Little Dehessa BC H 1 09:14:05.80 1260.466 00:01:06 Yes
71 Joe Jauhal - CA 0125-AU20-JEDD DC H 2 09:14:06.50 1260.089 00:01:07 Yes
72 Oddballs - CA 2201-AU20-FVC BB C 2 09:14:09.00 1258.748 00:01:10 Yes
73 Aceves-Cbc - CA 5631-AU20-AA BB H 1 09:14:09.50 1258.481 00:01:10 Yes
74 Osty Loft - CA 5598-AU20-FOYS GRIZ C 2 09:14:09.90 1258.266 00:01:10 Yes
75 Bieche-Stevenson - CA 0104-AU20-BIEC BC C 1 09:14:11.00 1257.678 00:01:11 Yes
76 Jacks Galaxy - FL 0029-AU20-XXX 771 x 94 BCWF H 1 09:14:12.10 1257.089 00:01:13 Yes
77 Mallo & Frasir - CA 0375-AU20-MAN BC C 1 09:14:13.10 1256.555 00:01:14 Yes
78 Armando Lopez Loft - CA 3979-AU20-CHP BCWF H 1 09:14:13.70 1256.235 00:01:14 Yes
79 Castanon Loft - CA 2851-AU20-CHP BB C 1 09:14:14.70 1255.701 00:01:15 Yes
80 America Loft - IN 0496-AU20-AMER 9108 95 BB H 1 09:14:15.10 1255.488 00:01:16 Yes
81 Palomar Lucio - CA 16115-AU20-JEDD BC H 1 09:14:15.50 1255.275 00:01:16 Yes
82 Black Vargas Loft - CA 3292-AU20-VITA DC C 1 09:14:15.90 1255.062 00:01:16 Yes
83 Bob Niemeyer - CA 1012-AU20-AUB BB C 2 09:14:16.30 1254.849 00:01:17 Yes
84 Kereru Whare - CA 1128-AU20-FORT BB C 2 09:14:16.70 1254.636 00:01:17 Yes
85 Garlic City - CA 1322-AU20-ARPU BB H 3 09:14:17.30 1254.316 00:01:18 Yes
86 Machos Loft - NV 1930-AU20-MACH BC H 1 09:14:17.90 1253.997 00:01:18 Yes
87 Samuel Gomez - CA 5580-AU20-FOYS BB C 1 09:14:18.30 1253.785 00:01:19 Yes
88 Kereru Whare - CA 1102-AU20-FORT BB C 3 09:14:18.70 1253.572 00:01:19 Yes
89 Capistrano Loft - FL 13402-AU20-ARPU Gigi BC C 4 09:14:19.10 1253.359 00:01:20 Yes
90 Texas Holiday Derby - TX 0729-AU20-NSL 507-681 x 4324 BB H 4 09:14:19.50 1253.147 00:01:20 Yes
91 Nevarez Loft - CA 0221-AU20-NEVA BB C 3 09:14:20.20 1252.775 00:01:21 Yes
92 Alvigar Loft - CA 17836-AU20-JEDD TERE BB C 2 09:14:21.60 1252.033 00:01:22 Yes
93 House Of Paine - CA 0207-AU20-HOUS 399x205 BBWF C 2 09:14:22.50 1251.556 00:01:23 Yes
94 Machos Loft - NV 1932-AU20-MACH BB H 2 09:14:23.40 1251.079 00:01:24 Yes
95 Palomar Lucio - CA 16117-AU20-JEDD BC H 2 09:14:23.80 1250.867 00:01:24 Yes
96 Loft Ramx4 - CA 17109-AU20-AA Ades BC C 2 09:14:25.10 1250.180 00:01:26 Yes
97 Josjim Loft - CA 20080-AU20-LAKE RC H 2 09:14:30.20 1247.490 00:01:31 Yes
98 S & S - CA 0014-AU20-SS BB C 1 09:14:31.90 1246.596 00:01:32 Yes
99 Pablo Larios & Rafael Reyes - CA 2855-AU20-FORT BB C 1 09:14:34.70 1245.126 00:01:35 Yes
100 Fco Avalos Loft - CA 1509-AU20-TULE BC C 1 09:14:35.20 1244.864 00:01:36 Yes

There are 427 bird records

Note: These Race Results are unofficial and subject to change until verified by the Race Committee and declared final.